EHI
0 0 0 0 0 0 0 0 0 0 0 0 0 0 0 0 0 0 0 0 0 0 0 0 0 0 0 0 0 0 0 0 0 0 0 0 0 0 0 0 0 0 0 0
0 0 0 0 0 0 0 0 0 0 0 0 0 0 0 0 0 0 0 0 0 0 0 0 0 0 0 0 0 0 0 0 0 0 0 0 0 0 0 0 0 0 0 0
0 0 0 0 0 0 0 0 0 0 0 0 0 0 0 0 0 0 0 0 0 0 0 0 0 0 0 0 0 0 0 0 0 0 0 0 0 0 0 0 0 0 0 0
0 0 0 0 0 0 0 0 0 0 0 0 0 0 0 0 0 0 0 0 0 0 0 0 0 0 0 0 0 0 0 0 0 0 0 0 0 0 0 0 0 0 0 0
0 0 0 0 0 0 0 0 0 0 0 0 0 0 0 0 0 0 0 0 0 0 0 0 0 0 0 0 0 0 0 0 0 0 0 0 0 0 0 0 0 0 0 0
0 0 0 0 0 0 0 0 0 0 0 0 0 0 0 0 0 0 0 0 0 0 0 0 0 0 0 0 0 0 0 0 0 0 0 0 0 0 0 0 0 0 0 0
0 0 0 0 0 0 0 0 0 0 0 0 0 0 0 0 0 0 0 0 0 0 0 0 0 0 0 0 0 0 0 0 0 0 0 0 0 0 0 0 0 0 0 0
0 0 0 0 0 0 0 0 0 0 0 0 0 0 0 0 0 0 0 0 0 0 0 0 0 0 0 0 0 0 0 0 0 0 0 0 0 0 0 0 0 0 0 0
0 0 0 0 0 0 0 0 0 0 0 0 0 0 0 0 0 0 0 0 0 0 0 0 0 0 0 0 0 0 0 0 0 0 0 0 0 0 0 0 0 0 0 0
0 0 0 0 0 0 0 0 0 0 0 0 0 0 0 0 0 0 0 0 0 0 0 0 0 0 0 0 0 0 0 0 0 0 0 0 0 0 0 0 0 0 0 0
0 0 0 0 0 0 0 0 0 0 0 0 0 0 0 0 0 0 0 0 0 0 0 0 0 0 0 0 0 0 0 0 0 0 0 0 0 0 0 0 0 0 0 0
0 0 0 0 0 0 0 0 0 0 0 0 0 0 0 0 0 0 0 0 0 0 0 0 0 0 0 0 0 0 0 0 0 0 0 0 0 0 0 0 0 0 0 0
0 0 0 0 0 0 0 0 0 0 0 0 0 0 0 0 0 0 0 0 0 0 0 0 0 0 0 0 0 0 0 0 0 0 0 0 0 0 0 0 0 0 0 0
0 0 0 0 0 0 0 0 0 0 0 0 0 0 0 0 0 0 0 0 0 0 0 0 0 0 0 0 0 0 0 0 0 0 0 0 0 0 0 0 0 0 0 0
0 0 0 0 0 0 0 0 0 0 0 0 0 0 0 0 0 0 0 0 0 0 0 0 0 0 0 0 0 0 0 0 0 0 0 0 0 0 0 0 0 0 0 0
0 0 0 0 0 0 0 0 0 0 0 0 0 0 0 0 0 0 0 0 0 0 0 0 0 0 0 0 0 0 0 0 0 0 0 0 0 0 0 0 0 0 0 0
0 0 0 0 0 0 0 0 0 0 0 0 0 0 0 0 0 0 0 0 0 0 0 0 0 0 0 0 0 0 0 0 0 0 0 0 0 0 0 0 0 0 0 0
0 0 0 0 0 0 0 0 0 0 0 0 0 0 0 0 0 0 0 0 0 0 0 0 0 0 0 0 0 0 0 0 0 0 0 0 0 0 0 0 0 0 0 0
0 0 0 0 0 0 0 0 0 0 0 0 0 0 0 0 0 0 0 0 0 0 0 0 0 0 0 0 0 0 0 0 0 0 0 0 0 0 0 0 0 0 0 0
0 0 0 0 0 0 0 0 0 0 0 0 0 0 0 0 0 0 0 0 0 0 0 0 0 0 0 0 0 0 0 0 0 0 0 0 0 0 0 0 0 0 0 0
0 0 0 0 0 0 0 0 0 0 0 0 0 0 0 0 0 0 0 0 0 0 0 0 0 0 0 0 0 0 0 0 0 0 0 0 0 0 0 0 0 0 0 0
0 0 0 0 0 0 0 0 0 0 0 0 0 0 0 0 0 0 0 0 0 0 0 0 0 0 0 0 0 0 0 0 0 0 0 0 0 0 0 0 0 0 0 0
0 0 0 0 0 0 0 0 0 0 0 0 0 0 0 0 0 0 0 0 0 0 0 0 0 0 0 0 0 0 0 0 0 0 0 0 0 0 0 0 0 0 0 0
0 0 0 0 0 0 0 0 0 0 0 0 0 0 0 0 0 0 0 0 0 0 0 0 0 0 0 0 0 0 0 0 0 0 0 0 0 0 0 0 0 0 0 0
0 0 0 0 0 0 0 0 0 0 0 0 0 0 0 0 0 0 0 0 0 0 0 0 0 0 0 0 0 0 0 0 0 0 0 0 0 0 0 0 0 0 0 0
0 0 0 0 0 0 0 0 0 0 0 0 0 0 0 0 0 0 0 0 0 0 0 0 0 0 0 0 0 0 0 0 0 0 0 0 0 0 0 0 0 0 0 0
0 0 0 0 0 0 0 0 0 0 0 0 0 0 0 0 0 0 0 0 0 0 0 0 0 0 0 0 0 0 0 0 0 0 0 0 0 0 0 0 0 0 0 0
Wind_Speed
3 4 4 6 8 11 13 11 9 10 11 17 14 13 12 10 9 8 6 5 6 6 5 4 4 4 4 5 6 7 9 11 11 11 12 12 13 13 13 13 13 12 12 11
2 4 6 8 11 13 14 14 17 17 21 17 12 9 9 9 8 7 6 5 5 5 4 4 3 4 5 6 7 8 10 11 12 13 13 13 13 13 13 13 12 12 11 10
3 3 2 8 11 14 10 10 10 16 17 12 11 10 8 7 6 6 4 3 3 4 3 3 3 5 6 7 9 10 11 11 12 13 13 13 14 13 13 12 11 10 9 8
2 2 6 8 4 6 9 11 12 11 10 8 9 8 5 3 3 3 2 2 2 2 3 4 6 7 8 10 11 12 12 12 12 13 13 13 13 12 11 10 9 8 7 7
1 3 8 8 3 4 5 6 6 8 8 7 5 4 2 1 2 2 2 2 2 3 5 7 8 9 10 11 11 12 12 12 12 13 13 12 12 11 9 8 8 6 5 6
2 3 6 6 2 1 2 4 3 3 5 5 3 3 3 2 3 4 4 4 4 5 7 8 8 9 11 11 12 12 11 12 11 11 12 11 10 9 7 7 6 6 5 4
5 5 8 8 3 2 1 4 3 4 5 4 4 4 1 3 4 5 5 6 6 7 7 7 7 9 11 11 11 11 11 12 11 10 10 10 8 7 7 6 6 5 5 3
5 6 9 4 2 3 6 4 4 5 5 4 3 2 3 4 5 6 6 6 7 7 7 7 7 10 11 11 10 11 11 11 11 9 8 8 8 7 6 6 6 4 4 3
8 9 6 3 4 4 3 4 5 4 4 3 3 4 4 4 6 6 6 6 7 8 8 7 7 9 11 9 10 11 11 10 9 8 7 6 6 6 5 4 4 3 3 2
5 8 7 7 5 4 3 4 4 3 3 3 4 5 5 6 6 6 6 6 7 8 8 8 7 8 9 9 9 10 11 9 8 8 7 6 4 4 4 3 3 3 2 2
6 7 6 5 3 3 2 2 2 2 2 3 5 6 6 7 7 7 6 6 7 7 8 9 8 9 8 8 9 10 9 8 7 6 6 5 4 3 4 2 3 3 2 1
5 5 4 5 3 2 2 2 2 2 1 2 5 7 7 7 6 7 7 7 8 8 9 9 8 8 7 7 8 10 8 7 5 5 4 4 4 4 6 5 7 6 3 1
4 4 4 4 2 1 2 2 1 1 2 3 4 6 8 8 7 7 8 8 8 9 8 8 8 8 7 7 7 7 7 6 5 4 4 4 3 4 3 4 6 6 6 5
3 3 3 3 2 1 1 2 3 3 3 4 5 7 8 8 8 8 8 8 9 9 8 8 8 7 6 7 7 7 7 7 6 4 4 4 3 3 2 2 1 2 4 7
5 4 4 2 0 1 2 3 3 3 4 4 5 7 8 9 9 8 8 9 9 9 8 8 8 7 6 7 8 7 6 5 4 4 4 4 3 3 3 2 1 1 2 4
8 5 2 1 2 2 2 3 4 4 4 4 5 7 8 9 9 9 8 9 10 10 8 8 8 6 6 7 8 6 5 9 7 4 4 3 3 3 2 2 1 1 2 3
6 5 3 3 4 4 4 4 5 5 5 6 7 8 10 10 10 9 8 7 7 7 7 7 7 6 6 7 7 5 5 6 9 5 3 3 2 2 2 1 1 1 2 4
7 7 7 6 5 5 5 5 6 6 6 7 8 9 10 10 10 9 9 9 9 8 6 6 7 7 6 6 6 5 5 4 4 3 3 2 2 2 1 1 1 2 3 4
8 7 6 4 4 4 5 6 7 7 7 8 9 8 8 8 9 9 9 10 10 9 5 6 12 8 7 7 8 5 5 5 4 3 2 3 3 1 1 1 1 2 3 3
9 8 6 3 1 2 4 6 7 8 8 9 9 9 9 9 9 9 9 6 4 4 7 8 8 6 6 7 8 4 5 5 4 3 2 2 1 1 1 1 2 3 3 3
9 8 6 4 3 2 4 6 8 8 8 9 9 10 9 9 9 8 8 6 4 6 8 11 6 5 5 6 8 4 4 4 3 3 2 1 1 0 1 2 2 3 3 4
8 7 5 3 2 2 3 4 6 7 8 8 8 9 10 10 8 6 4 5 7 11 7 5 5 7 9 9 4 4 4 4 3 2 1 1 0 1 2 2 3 4 4 4
7 5 5 3 1 1 3 3 5 6 7 8 10 10 10 8 7 8 6 5 6 11 7 5 8 12 12 6 4 4 4 3 2 2 1 1 1 2 2 3 3 4 4 5
7 6 4 3 1 2 2 3 3 4 5 5 6 7 8 7 4 2 4 12 13 12 6 9 13 13 10 4 4 3 3 2 2 1 1 1 1 2 2 3 4 4 4 6
6 5 3 2 1 0 1 3 4 5 6 5 5 5 4 3 4 6 7 9 14 12 6 9 13 12 6 4 4 3 2 2 2 2 2 1 2 2 3 3 4 4 5 5
5 4 3 2 1 1 2 3 3 4 5 6 5 4 4 4 6 6 6 7 10 11 6 5 6 7 4 4 3 3 2 1 0 1 2 2 3 3 3 4 5 5 5 6
5 4 3 2 1 1 2 3 4 5 5 6 6 5 6 6 7 7 8 7 7 6 5 4 4 4 3 3 3 2 2 1 1 2 2 2 3 3 4 5 5 5 5 6
Wind_Direction
227 218 195 212 212 204 209 211 222 246 255 274 286 293 295 296 301 304 309 320 326 324 324 331 352 14 44 60 74 95 109 115 117 117 117 118 120 120 119 118 116 114 112 109
281 244 230 240 231 221 224 229 240 257 270 272 279 282 287 297 305 306 310 319 327 332 343 350 14 46 71 77 83 92 99 105 109 112 112 112 112 111 109 108 108 108 110 113
274 305 325 261 229 215 212 216 217 243 255 273 288 291 293 302 307 302 306 320 331 341 352 11 51 80 87 91 92 92 94 98 102 106 106 106 108 106 107 105 104 105 108 110
280 337 248 247 241 198 212 236 230 241 263 276 279 289 292 307 306 314 330 347 6 23 40 54 72 84 90 91 93 95 94 95 98 101 102 102 103 103 103 104 107 109 113 117
221 266 279 288 261 187 199 260 234 236 261 276 297 305 285 21 28 39 58 61 60 68 77 78 84 92 95 93 93 94 96 97 99 103 105 104 104 105 106 109 110 114 118 121
205 247 256 262 282 153 113 274 245 235 267 286 311 296 280 92 76 77 77 75 76 77 84 86 88 97 99 99 99 99 101 101 101 103 107 108 110 109 108 111 114 115 109 112
218 243 265 258 250 117 224 262 264 258 265 268 247 238 197 103 93 94 91 88 87 84 83 90 98 101 100 100 100 104 105 103 102 104 107 110 107 107 111 111 109 105 103 90
191 218 253 257 150 196 235 262 264 261 258 247 225 163 123 117 116 110 102 99 97 94 89 89 98 104 103 103 107 107 106 104 104 106 109 112 112 110 108 112 110 106 101 83
201 222 242 240 229 255 263 269 271 260 257 216 189 175 147 132 129 123 117 114 110 109 103 95 99 109 111 111 112 111 109 108 109 108 106 112 117 117 110 106 108 106 101 88
248 260 262 264 261 266 263 260 273 268 260 210 186 165 148 140 136 133 129 127 125 122 118 111 107 109 114 119 119 117 115 114 113 112 107 99 94 101 108 113 111 111 110 106
250 271 287 275 248 255 269 282 292 297 270 196 164 157 151 144 141 138 135 132 130 127 123 121 119 116 120 123 122 118 116 116 114 109 109 99 90 97 110 118 142 139 148 163
240 247 247 267 256 230 238 259 263 276 304 151 156 151 144 140 136 134 135 131 128 127 127 127 126 123 123 125 128 128 125 120 113 111 109 109 105 85 81 93 91 95 117 125
266 282 258 263 261 226 232 244 237 193 159 136 133 139 136 133 131 130 130 131 131 131 130 128 126 125 127 128 127 126 126 123 117 118 120 118 115 112 94 57 61 57 41 24
319 320 283 266 256 232 143 110 95 83 90 114 122 126 127 127 129 130 131 129 126 125 124 125 124 124 126 122 118 116 116 122 122 119 119 115 111 108 109 103 54 2 4 7
335 320 286 283 155 129 123 120 113 108 106 105 117 128 132 134 133 130 129 130 127 126 127 127 125 122 121 122 121 120 118 116 113 110 106 105 105 102 96 90 76 6 337 343
315 309 289 249 225 200 173 165 160 157 143 132 130 130 128 126 125 127 131 137 138 138 138 135 132 130 126 125 121 115 117 127 121 113 108 105 103 101 94 81 54 6 338 319
311 303 292 275 250 231 211 197 181 167 154 145 140 133 128 126 126 128 128 125 124 125 129 132 131 126 124 124 123 121 116 123 122 113 110 113 109 104 98 81 28 340 318 318
292 285 276 265 248 229 212 186 170 161 154 147 140 139 140 142 141 138 131 122 116 109 110 122 127 123 118 118 118 119 117 115 117 118 115 114 111 101 89 57 356 330 316 321
320 312 303 285 246 211 188 170 162 154 146 145 146 144 141 137 136 136 135 135 138 137 142 142 137 125 123 131 126 117 119 118 114 109 106 110 99 79 57 7 329 318 313 316
341 343 345 350 27 146 153 148 147 147 149 147 143 139 138 140 140 140 137 134 143 143 143 138 129 125 126 134 127 117 121 123 123 120 112 107 102 64 354 328 320 312 310 310
348 351 360 14 33 83 134 146 150 153 152 152 152 151 147 143 143 143 141 136 136 136 140 140 132 131 130 134 127 119 122 124 126 128 126 122 110 328 315 315 315 311 307 307
346 350 356 9 43 80 112 134 146 149 149 148 144 144 146 147 145 135 124 141 150 149 139 135 137 145 144 133 121 124 126 128 129 130 133 150 225 281 294 301 300 302 302 301
344 348 354 -0 23 89 107 124 142 152 155 158 159 160 160 158 158 155 151 150 149 152 143 148 156 150 141 128 127 129 131 133 137 147 170 212 247 266 279 288 289 293 295 296
343 346 348 357 39 101 123 126 130 137 142 146 152 156 154 149 143 129 134 155 159 152 150 159 155 150 140 128 130 132 136 143 155 177 208 237 255 266 273 280 285 288 288 292
335 334 340 354 9 94 142 133 127 131 135 136 137 140 142 145 151 149 146 154 158 150 147 159 156 148 137 134 139 144 153 176 193 198 210 240 259 269 273 275 278 283 287 286
326 324 317 304 286 212 170 161 162 161 156 153 149 144 135 125 131 139 143 146 151 150 144 135 140 142 138 142 147 154 163 183 215 222 238 254 263 269 273 278 282 281 282 284
321 320 318 316 297 212 189 182 179 179 176 171 161 157 151 147 147 147 145 144 143 141 138 133 132 137 143 147 152 158 168 190 222 243 252 257 261 265 272 277 278 281 283 284